TimeCST,TemperatureF,Dew PointF,Humidity,Sea Level PressureIn,VisibilityMPH,Wind Direction,Wind SpeedMPH,Gust SpeedMPH,PrecipitationIn,Events,Conditions,WindDirDegrees,DateUTC
12:01 AM,-14.8,-20.2,77,30.03,10.0,SW,3.5,-,N/A,,Scattered Clouds,220,2014-01-07 06:01:00
12:20 AM,-13.0,-20.2,70,30.03,10.0,South,3.5,-,N/A,,Mostly Cloudy,180,2014-01-07 06:20:00
12:53 AM,-13.0,-20.0,71,30.12,10.0,SW,4.6,-,N/A,,Overcast,230,2014-01-07 06:53:00
1:53 AM,-11.0,-18.0,71,30.11,10.0,South,3.5,-,N/A,,Overcast,190,2014-01-07 07:53:00
2:53 AM,-9.9,-16.1,74,30.11,10.0,Calm,Calm,-,N/A,,Overcast,0,2014-01-07 08:53:00
3:53 AM,-9.9,-17.0,71,30.11,10.0,WNW,4.6,-,N/A,,Overcast,290,2014-01-07 09:53:00
4:53 AM,-13.0,-18.9,75,30.12,10.0,West,4.6,-,N/A,,Clear,280,2014-01-07 10:53:00
5:53 AM,-14.1,-18.9,79,30.13,10.0,WNW,4.6,-,N/A,,Partly Cloudy,300,2014-01-07 11:53:00
6:53 AM,-15.0,-20.0,78,30.14,10.0,NW,5.8,-,N/A,,Partly Cloudy,310,2014-01-07 12:53:00
7:53 AM,-16.1,-20.0,82,30.17,10.0,NW,5.8,-,N/A,,Partly Cloudy,310,2014-01-07 13:53:00
8:53 AM,-16.1,-20.9,79,30.19,10.0,NW,8.1,-,N/A,,Scattered Clouds,310,2014-01-07 14:53:00
9:53 AM,-13.0,-20.0,71,30.20,10.0,NNW,8.1,-,N/A,,Mostly Cloudy,340,2014-01-07 15:53:00
10:53 AM,-9.9,-17.0,71,30.22,10.0,NNW,8.1,-,N/A,,Mostly Cloudy,340,2014-01-07 16:53:00
11:13 AM,-9.4,-16.6,71,30.13,10.0,NNW,6.9,-,N/A,,Mostly Cloudy,340,2014-01-07 17:13:00
11:53 AM,-8.0,-15.0,71,30.22,10.0,NW,5.8,-,N/A,,Overcast,320,2014-01-07 17:53:00
12:53 PM,-7.1,-15.0,68,30.22,10.0,NW,6.9,-,N/A,,Overcast,320,2014-01-07 18:53:00
1:53 PM,-6.0,-14.1,68,30.22,10.0,NW,6.9,-,N/A,,Overcast,320,2014-01-07 19:53:00
2:53 PM,-5.1,-14.1,65,30.23,10.0,NNW,4.6,-,N/A,,Overcast,340,2014-01-07 20:53:00
3:53 PM,-7.1,-14.1,72,30.26,8.0,East,3.5,-,N/A,,Mostly Cloudy,90,2014-01-07 21:53:00
4:53 PM,-8.0,-14.1,75,30.27,10.0,Calm,Calm,-,N/A,,Mostly Cloudy,0,2014-01-07 22:53:00
5:53 PM,-9.0,-15.0,75,30.28,10.0,ENE,3.5,-,N/A,,Mostly Cloudy,70,2014-01-07 23:53:00
6:53 PM,-13.0,-18.9,75,30.31,10.0,Calm,Calm,-,N/A,,Scattered Clouds,0,2014-01-08 00:53:00
7:53 PM,-18.0,-22.0,82,30.32,10.0,NNW,3.5,-,N/A,,Clear,330,2014-01-08 01:53:00
8:53 PM,-18.9,-22.0,86,30.34,10.0,Calm,Calm,-,N/A,,Partly Cloudy,0,2014-01-08 02:53:00
9:53 PM,-20.0,-24.0,82,30.35,10.0,Calm,Calm,-,N/A,,Scattered Clouds,0,2014-01-08 03:53:00
10:53 PM,-23.1,-27.9,78,30.36,10.0,WSW,5.8,-,N/A,,Partly Cloudy,250,2014-01-08 04:53:00
11:53 PM,-23.1,-27.9,78,30.36,10.0,WSW,3.5,-,N/A,,Clear,240,2014-01-08 05:53:00